segment_id,date_local,uptime,ped_lft,ped_rgt,ped_total,bike_lft,bike_rgt,bike_total,car_lft,car_rgt,car_total,heavy_lft,heavy_rgt,heavy_total,v85,car_speed0,car_speed10,car_speed20,car_speed30,car_speed40,car_speed50,car_speed60,car_speed70
100024661,2018-09-01 00:00,1.0,,,,187,128,315,,,,,,,
100024661,2018-09-01 01:00,1.0,,,,111,115,226,,,,,,,
100024661,2018-09-01 02:00,1.0,,,,69,32,101,,,,,,,
100024661,2018-09-01 03:00,1.0,,,,51,30,81,,,,,,,
100024661,2018-09-01 04:00,1.0,,,,31,20,51,,,,,,,
100024661,2018-09-01 05:00,1.0,,,,25,15,40,,,,,,,
100024661,2018-09-01 06:00,1.0,,,,20,17,37,,,,,,,
100024661,2018-09-01 07:00,1.0,,,,41,33,74,,,,,,,
100024661,2018-09-01 08:00,1.0,,,,50,52,102,,,,,,,
100024661,2018-09-01 09:00,1.0,,,,154,99,253,,,,,,,
100024661,2018-09-01 10:00,1.0,,,,165,138,303,,,,,,,
100024661,2018-09-01 11:00,1.0,,,,192,165,357,,,,,,,
100024661,2018-09-01 12:00,1.0,,,,206,258,464,,,,,,,
100024661,2018-09-01 13:00,1.0,,,,202,248,450,,,,,,,
100024661,2018-09-01 14:00,1.0,,,,258,308,566,,,,,,,
100024661,2018-09-01 15:00,1.0,,,,251,307,558,,,,,,,
100024661,2018-09-01 16:00,1.0,,,,294,281,575,,,,,,,
100024661,2018-09-01 17:00,1.0,,,,246,288,534,,,,,,,
100024661,2018-09-01 18:00,1.0,,,,270,341,611,,,,,,,
100024661,2018-09-01 19:00,1.0,,,,267,269,536,,,,,,,
100024661,2018-09-01 20:00,1.0,,,,204,223,427,,,,,,,
100024661,2018-09-01 21:00,1.0,,,,143,173,316,,,,,,,
100024661,2018-09-01 22:00,1.0,,,,134,127,261,,,,,,,
100024661,2018-09-01 23:00,1.0,,,,122,100,222,,,,,,,
100024661,2018-09-02 00:00,1.0,,,,96,106,202,,,,,,,
100024661,2018-09-02 01:00,1.0,,,,67,95,162,,,,,,,
100024661,2018-09-02 02:00,1.0,,,,55,47,102,,,,,,,
100024661,2018-09-02 03:00,1.0,,,,39,40,79,,,,,,,
100024661,2018-09-02 04:00,1.0,,,,26,26,52,,,,,,,
100024661,2018-09-02 05:00,1.0,,,,20,19,39,,,,,,,
100024661,2018-09-02 06:00,1.0,,,,24,16,40,,,,,,,
100024661,2018-09-02 07:00,1.0,,,,29,20,49,,,,,,,
100024661,2018-09-02 08:00,1.0,,,,46,30,76,,,,,,,
100024661,2018-09-02 09:00,1.0,,,,55,60,115,,,,,,,
100024661,2018-09-02 10:00,1.0,,,,82,77,159,,,,,,,
100024661,2018-09-02 11:00,1.0,,,,110,144,254,,,,,,,
100024661,2018-09-02 12:00,1.0,,,,151,90,241,,,,,,,
100024661,2018-09-02 13:00,1.0,,,,165,127,292,,,,,,,
100024661,2018-09-02 14:00,1.0,,,,182,165,347,,,,,,,
100024661,2018-09-02 15:00,1.0,,,,197,170,367,,,,,,,
100024661,2018-09-02 16:00,1.0,,,,173,215,388,,,,,,,
100024661,2018-09-02 17:00,1.0,,,,180,220,400,,,,,,,
100024661,2018-09-02 18:00,1.0,,,,172,224,396,,,,,,,
100024661,2018-09-02 19:00,1.0,,,,188,200,388,,,,,,,
100024661,2018-09-02 20:00,1.0,,,,106,110,216,,,,,,,
100024661,2018-09-02 21:00,1.0,,,,103,84,187,,,,,,,
100024661,2018-09-02 22:00,1.0,,,,86,81,167,,,,,,,
100024661,2018-09-02 23:00,1.0,,,,48,50,98,,,,,,,
100024661,2018-09-03 00:00,1.0,,,,35,22,57,,,,,,,
100024661,2018-09-03 01:00,1.0,,,,22,23,45,,,,,,,
100024661,2018-09-03 02:00,1.0,,,,17,7,24,,,,,,,
100024661,2018-09-03 03:00,1.0,,,,9,9,18,,,,,,,
100024661,2018-09-03 04:00,1.0,,,,3,7,10,,,,,,,
100024661,2018-09-03 05:00,1.0,,,,23,37,60,,,,,,,
100024661,2018-09-03 06:00,1.0,,,,60,114,174,,,,,,,
100024661,2018-09-03 07:00,1.0,,,,180,390,570,,,,,,,
100024661,2018-09-03 08:00,1.0,,,,553,1010,1563,,,,,,,
100024661,2018-09-03 09:00,1.0,,,,578,777,1355,,,,,,,
100024661,2018-09-03 10:00,1.0,,,,260,324,584,,,,,,,
100024661,2018-09-03 11:00,1.0,,,,197,249,446,,,,,,,
100024661,2018-09-03 12:00,1.0,,,,261,257,518,,,,,,,
100024661,2018-09-03 13:00,1.0,,,,263,222,485,,,,,,,
100024661,2018-09-03 14:00,1.0,,,,289,256,545,,,,,,,
100024661,2018-09-03 15:00,1.0,,,,421,348,769,,,,,,,
100024661,2018-09-03 16:00,1.0,,,,544,403,947,,,,,,,
100024661,2018-09-03 17:00,1.0,,,,738,539,1277,,,,,,,
100024661,2018-09-03 18:00,1.0,,,,815,665,1480,,,,,,,
100024661,2018-09-03 19:00,1.0,,,,527,521,1048,,,,,,,
100024661,2018-09-03 20:00,1.0,,,,364,291,655,,,,,,,
100024661,2018-09-03 21:00,1.0,,,,210,214,424,,,,,,,
100024661,2018-09-03 22:00,1.0,,,,154,162,316,,,,,,,
100024661,2018-09-03 23:00,1.0,,,,129,117,246,,,,,,,
100024661,2018-09-04 00:00,1.0,,,,66,72,138,,,,,,,
100024661,2018-09-04 01:00,1.0,,,,35,22,57,,,,,,,
100024661,2018-09-04 02:00,1.0,,,,21,20,41,,,,,,,
100024661,2018-09-04 03:00,1.0,,,,10,10,20,,,,,,,
100024661,2018-09-04 04:00,1.0,,,,10,8,18,,,,,,,
100024661,2018-09-04 05:00,1.0,,,,25,41,66,,,,,,,
100024661,2018-09-04 06:00,1.0,,,,60,142,202,,,,,,,
100024661,2018-09-04 07:00,1.0,,,,249,412,661,,,,,,,
100024661,2018-09-04 08:00,1.0,,,,599,1058,1657,,,,,,,
100024661,2018-09-04 09:00,1.0,,,,621,777,1398,,,,,,,
100024661,2018-09-04 10:00,1.0,,,,286,362,648,,,,,,,
100024661,2018-09-04 11:00,1.0,,,,222,235,457,,,,,,,
100024661,2018-09-04 12:00,1.0,,,,257,267,524,,,,,,,
100024661,2018-09-04 13:00,1.0,,,,272,273,545,,,,,,,
100024661,2018-09-04 14:00,1.0,,,,312,341,653,,,,,,,
100024661,2018-09-04 15:00,1.0,,,,500,358,858,,,,,,,
100024661,2018-09-04 16:00,1.0,,,,548,443,991,,,,,,,
100024661,2018-09-04 17:00,1.0,,,,766,537,1303,,,,,,,
100024661,2018-09-04 18:00,1.0,,,,882,733,1615,,,,,,,
100024661,2018-09-04 19:00,1.0,,,,580,528,1108,,,,,,,
100024661,2018-09-04 20:00,1.0,,,,332,317,649,,,,,,,
100024661,2018-09-04 21:00,1.0,,,,224,249,473,,,,,,,
100024661,2018-09-04 22:00,1.0,,,,207,196,403,,,,,,,
100024661,2018-09-04 23:00,1.0,,,,132,129,261,,,,,,,
100024661,2018-09-05 00:00,1.0,,,,84,52,136,,,,,,,
100024661,2018-09-05 01:00,1.0,,,,35,37,72,,,,,,,
100024661,2018-09-05 02:00,1.0,,,,9,14,23,,,,,,,
100024661,2018-09-05 03:00,1.0,,,,15,5,20,,,,,,,
100024661,2018-09-05 04:00,1.0,,,,9,14,23,,,,,,,
100024661,2018-09-05 05:00,1.0,,,,14,35,49,,,,,,,
100024661,2018-09-05 06:00,1.0,,,,65,137,202,,,,,,,
100024661,2018-09-05 07:00,1.0,,,,210,399,609,,,,,,,
100024661,2018-09-05 08:00,1.0,,,,578,989,1567,,,,,,,
100024661,2018-09-05 09:00,1.0,,,,576,821,1397,,,,,,,
100024661,2018-09-05 10:00,1.0,,,,298,326,624,,,,,,,
100024661,2018-09-05 11:00,1.0,,,,216,226,442,,,,,,,
100024661,2018-09-05 12:00,1.0,,,,267,232,499,,,,,,,
100024661,2018-09-05 13:00,1.0,,,,273,260,533,,,,,,,
100024661,2018-09-05 14:00,1.0,,,,315,288,603,,,,,,,
100024661,2018-09-05 15:00,1.0,,,,463,375,838,,,,,,,
100024661,2018-09-05 16:00,1.0,,,,563,405,968,,,,,,,
100024661,2018-09-05 17:00,1.0,,,,717,514,1231,,,,,,,
100024661,2018-09-05 18:00,1.0,,,,878,745,1623,,,,,,,
100024661,2018-09-05 19:00,1.0,,,,537,554,1091,,,,,,,
100024661,2018-09-05 20:00,1.0,,,,330,352,682,,,,,,,
100024661,2018-09-05 21:00,1.0,,,,231,241,472,,,,,,,
100024661,2018-09-05 22:00,1.0,,,,200,207,407,,,,,,,
100024661,2018-09-05 23:00,1.0,,,,129,134,263,,,,,,,
100024661,2018-09-06 00:00,1.0,,,,62,86,148,,,,,,,
100024661,2018-09-06 01:00,1.0,,,,36,37,73,,,,,,,
100024661,2018-09-06 02:00,1.0,,,,30,15,45,,,,,,,
100024661,2018-09-06 03:00,1.0,,,,14,14,28,,,,,,,
100024661,2018-09-06 04:00,1.0,,,,11,6,17,,,,,,,
100024661,2018-09-06 05:00,1.0,,,,16,42,58,,,,,,,
100024661,2018-09-06 06:00,1.0,,,,62,124,186,,,,,,,
100024661,2018-09-06 07:00,1.0,,,,212,383,595,,,,,,,
100024661,2018-09-06 08:00,1.0,,,,571,979,1550,,,,,,,
100024661,2018-09-06 09:00,1.0,,,,594,769,1363,,,,,,,
100024661,2018-09-06 10:00,1.0,,,,283,323,606,,,,,,,
100024661,2018-09-06 11:00,1.0,,,,246,231,477,,,,,,,
100024661,2018-09-06 12:00,1.0,,,,256,273,529,,,,,,,
100024661,2018-09-06 13:00,1.0,,,,292,280,572,,,,,,,
100024661,2018-09-06 14:00,1.0,,,,342,350,692,,,,,,,
100024661,2018-09-06 15:00,1.0,,,,463,366,829,,,,,,,
100024661,2018-09-06 16:00,1.0,,,,532,404,936,,,,,,,
100024661,2018-09-06 17:00,1.0,,,,728,540,1268,,,,,,,
100024661,2018-09-06 18:00,1.0,,,,874,772,1646,,,,,,,
100024661,2018-09-06 19:00,1.0,,,,554,535,1089,,,,,,,
100024661,2018-09-06 20:00,1.0,,,,322,333,655,,,,,,,
100024661,2018-09-06 21:00,1.0,,,,239,248,487,,,,,,,
100024661,2018-09-06 22:00,1.0,,,,227,173,400,,,,,,,
100024661,2018-09-06 23:00,1.0,,,,157,131,288,,,,,,,
100024661,2018-09-07 00:00,1.0,,,,126,87,213,,,,,,,
100024661,2018-09-07 01:00,1.0,,,,46,49,95,,,,,,,
100024661,2018-09-07 02:00,1.0,,,,28,18,46,,,,,,,
100024661,2018-09-07 03:00,1.0,,,,23,12,35,,,,,,,
100024661,2018-09-07 04:00,1.0,,,,15,9,24,,,,,,,
100024661,2018-09-07 05:00,1.0,,,,25,33,58,,,,,,,
100024661,2018-09-07 06:00,1.0,,,,32,78,110,,,,,,,
100024661,2018-09-07 07:00,1.0,,,,122,266,388,,,,,,,
100024661,2018-09-07 08:00,1.0,,,,389,642,1031,,,,,,,
100024661,2018-09-07 09:00,1.0,,,,373,543,916,,,,,,,
100024661,2018-09-07 10:00,1.0,,,,202,232,434,,,,,,,
100024661,2018-09-07 11:00,1.0,,,,188,189,377,,,,,,,
100024661,2018-09-07 12:00,1.0,,,,245,217,462,,,,,,,
100024661,2018-09-07 13:00,1.0,,,,285,261,546,,,,,,,
100024661,2018-09-07 14:00,1.0,,,,325,273,598,,,,,,,
100024661,2018-09-07 15:00,1.0,,,,404,325,729,,,,,,,
100024661,2018-09-07 16:00,1.0,,,,468,358,826,,,,,,,
100024661,2018-09-07 17:00,1.0,,,,519,373,892,,,,,,,
100024661,2018-09-07 18:00,1.0,,,,553,439,992,,,,,,,
100024661,2018-09-07 19:00,1.0,,,,380,397,777,,,,,,,
100024661,2018-09-07 20:00,1.0,,,,231,304,535,,,,,,,
100024661,2018-09-07 21:00,1.0,,,,167,154,321,,,,,,,
100024661,2018-09-07 22:00,1.0,,,,146,178,324,,,,,,,
100024661,2018-09-07 23:00,1.0,,,,124,115,239,,,,,,,
100024661,2018-09-08 00:00,1.0,,,,97,99,196,,,,,,,
100024661,2018-09-08 01:00,1.0,,,,98,82,180,,,,,,,
100024661,2018-09-08 02:00,1.0,,,,45,38,83,,,,,,,
100024661,2018-09-08 03:00,1.0,,,,33,23,56,,,,,,,
100024661,2018-09-08 04:00,1.0,,,,28,21,49,,,,,,,
100024661,2018-09-08 05:00,1.0,,,,19,9,28,,,,,,,
100024661,2018-09-08 06:00,1.0,,,,23,20,43,,,,,,,
100024661,2018-09-08 07:00,1.0,,,,35,36,71,,,,,,,
100024661,2018-09-08 08:00,1.0,,,,82,65,147,,,,,,,
100024661,2018-09-08 09:00,1.0,,,,131,96,227,,,,,,,
100024661,2018-09-08 10:00,1.0,,,,171,124,295,,,,,,,
100024661,2018-09-08 11:00,1.0,,,,166,151,317,,,,,,,
100024661,2018-09-08 12:00,1.0,,,,231,214,445,,,,,,,
100024661,2018-09-08 13:00,1.0,,,,224,247,471,,,,,,,
100024661,2018-09-08 14:00,1.0,,,,273,303,576,,,,,,,
100024661,2018-09-08 15:00,1.0,,,,268,282,550,,,,,,,
100024661,2018-09-08 16:00,1.0,,,,287,270,557,,,,,,,
100024661,2018-09-08 17:00,1.0,,,,294,303,597,,,,,,,
100024661,2018-09-08 18:00,1.0,,,,249,248,497,,,,,,,
100024661,2018-09-08 19:00,1.0,,,,182,229,411,,,,,,,
100024661,2018-09-08 20:00,1.0,,,,216,233,449,,,,,,,
100024661,2018-09-08 21:00,1.0,,,,144,206,350,,,,,,,
100024661,2018-09-08 22:00,1.0,,,,142,142,284,,,,,,,
100024661,2018-09-08 23:00,1.0,,,,137,105,242,,,,,,,
100024661,2018-09-09 00:00,1.0,,,,95,97,192,,,,,,,
100024661,2018-09-09 01:00,1.0,,,,72,88,160,,,,,,,
100024661,2018-09-09 02:00,1.0,,,,63,47,110,,,,,,,
100024661,2018-09-09 03:00,1.0,,,,35,37,72,,,,,,,
100024661,2018-09-09 04:00,1.0,,,,14,13,27,,,,,,,
100024661,2018-09-09 05:00,1.0,,,,26,16,42,,,,,,,
100024661,2018-09-09 06:00,1.0,,,,21,10,31,,,,,,,
100024661,2018-09-09 07:00,1.0,,,,28,19,47,,,,,,,
100024661,2018-09-09 08:00,1.0,,,,49,40,89,,,,,,,
100024661,2018-09-09 09:00,1.0,,,,63,62,125,,,,,,,
100024661,2018-09-09 10:00,1.0,,,,99,108,207,,,,,,,
100024661,2018-09-09 11:00,1.0,,,,124,101,225,,,,,,,
100024661,2018-09-09 12:00,1.0,,,,155,152,307,,,,,,,
100024661,2018-09-09 13:00,1.0,,,,207,205,412,,,,,,,
100024661,2018-09-09 14:00,1.0,,,,241,233,474,,,,,,,
100024661,2018-09-09 15:00,1.0,,,,248,248,496,,,,,,,
100024661,2018-09-09 16:00,1.0,,,,228,262,490,,,,,,,
100024661,2018-09-09 17:00,1.0,,,,246,260,506,,,,,,,
100024661,2018-09-09 18:00,1.0,,,,257,237,494,,,,,,,
100024661,2018-09-09 19:00,1.0,,,,217,217,434,,,,,,,
100024661,2018-09-09 20:00,1.0,,,,140,162,302,,,,,,,
100024661,2018-09-09 21:00,1.0,,,,118,122,240,,,,,,,
100024661,2018-09-09 22:00,1.0,,,,108,125,233,,,,,,,
100024661,2018-09-09 23:00,1.0,,,,76,63,139,,,,,,,
100024661,2018-09-10 00:00,1.0,,,,32,43,75,,,,,,,
100024661,2018-09-10 01:00,1.0,,,,14,19,33,,,,,,,
100024661,2018-09-10 02:00,1.0,,,,10,12,22,,,,,,,
100024661,2018-09-10 03:00,1.0,,,,12,9,21,,,,,,,
100024661,2018-09-10 04:00,1.0,,,,7,7,14,,,,,,,
100024661,2018-09-10 05:00,1.0,,,,19,30,49,,,,,,,
100024661,2018-09-10 06:00,1.0,,,,49,129,178,,,,,,,
100024661,2018-09-10 07:00,1.0,,,,208,402,610,,,,,,,
100024661,2018-09-10 08:00,1.0,,,,507,954,1461,,,,,,,
100024661,2018-09-10 09:00,1.0,,,,585,801,1386,,,,,,,
100024661,2018-09-10 10:00,1.0,,,,267,308,575,,,,,,,
100024661,2018-09-10 11:00,1.0,,,,236,206,442,,,,,,,
100024661,2018-09-10 12:00,1.0,,,,227,231,458,,,,,,,
100024661,2018-09-10 13:00,1.0,,,,274,232,506,,,,,,,
100024661,2018-09-10 14:00,1.0,,,,337,251,588,,,,,,,
100024661,2018-09-10 15:00,1.0,,,,435,342,777,,,,,,,
100024661,2018-09-10 16:00,1.0,,,,489,396,885,,,,,,,
100024661,2018-09-10 17:00,1.0,,,,696,462,1158,,,,,,,
100024661,2018-09-10 18:00,1.0,,,,786,696,1482,,,,,,,
100024661,2018-09-10 19:00,1.0,,,,542,482,1024,,,,,,,
100024661,2018-09-10 20:00,1.0,,,,260,282,542,,,,,,,
100024661,2018-09-10 21:00,1.0,,,,185,217,402,,,,,,,
100024661,2018-09-10 22:00,1.0,,,,157,127,284,,,,,,,
100024661,2018-09-10 23:00,1.0,,,,92,100,192,,,,,,,
100024661,2018-09-11 00:00,1.0,,,,60,60,120,,,,,,,
100024661,2018-09-11 01:00,1.0,,,,19,29,48,,,,,,,
100024661,2018-09-11 02:00,1.0,,,,7,12,19,,,,,,,
100024661,2018-09-11 03:00,1.0,,,,10,6,16,,,,,,,
100024661,2018-09-11 04:00,1.0,,,,15,11,26,,,,,,,
100024661,2018-09-11 05:00,1.0,,,,20,34,54,,,,,,,
100024661,2018-09-11 06:00,1.0,,,,81,137,218,,,,,,,
100024661,2018-09-11 07:00,1.0,,,,225,416,641,,,,,,,
100024661,2018-09-11 08:00,1.0,,,,536,1008,1544,,,,,,,
100024661,2018-09-11 09:00,1.0,,,,600,774,1374,,,,,,,
100024661,2018-09-11 10:00,1.0,,,,280,312,592,,,,,,,
100024661,2018-09-11 11:00,1.0,,,,225,272,497,,,,,,,
100024661,2018-09-11 12:00,1.0,,,,271,266,537,,,,,,,
100024661,2018-09-11 13:00,1.0,,,,273,281,554,,,,,,,
100024661,2018-09-11 14:00,1.0,,,,319,295,614,,,,,,,
100024661,2018-09-11 15:00,1.0,,,,470,391,861,,,,,,,
100024661,2018-09-11 16:00,1.0,,,,601,401,1002,,,,,,,
100024661,2018-09-11 17:00,1.0,,,,746,573,1319,,,,,,,
100024661,2018-09-11 18:00,1.0,,,,899,661,1560,,,,,,,
100024661,2018-09-11 19:00,1.0,,,,555,554,1109,,,,,,,
100024661,2018-09-11 20:00,1.0,,,,313,316,629,,,,,,,
100024661,2018-09-11 21:00,1.0,,,,204,231,435,,,,,,,
100024661,2018-09-11 22:00,1.0,,,,203,170,373,,,,,,,
100024661,2018-09-11 23:00,1.0,,,,138,115,253,,,,,,,
100024661,2018-09-12 00:00,1.0,,,,81,66,147,,,,,,,
100024661,2018-09-12 01:00,1.0,,,,44,29,73,,,,,,,
100024661,2018-09-12 02:00,1.0,,,,20,15,35,,,,,,,
100024661,2018-09-12 03:00,1.0,,,,7,12,19,,,,,,,
100024661,2018-09-12 04:00,1.0,,,,9,14,23,,,,,,,
100024661,2018-09-12 05:00,1.0,,,,27,37,64,,,,,,,
100024661,2018-09-12 06:00,1.0,,,,57,140,197,,,,,,,
100024661,2018-09-12 07:00,1.0,,,,208,432,640,,,,,,,
100024661,2018-09-12 08:00,1.0,,,,572,1040,1612,,,,,,,
100024661,2018-09-12 09:00,1.0,,,,615,718,1333,,,,,,,
100024661,2018-09-12 10:00,1.0,,,,267,328,595,,,,,,,
100024661,2018-09-12 11:00,1.0,,,,218,236,454,,,,,,,
100024661,2018-09-12 12:00,1.0,,,,257,225,482,,,,,,,
100024661,2018-09-12 13:00,1.0,,,,282,270,552,,,,,,,
100024661,2018-09-12 14:00,1.0,,,,337,307,644,,,,,,,
100024661,2018-09-12 15:00,1.0,,,,475,350,825,,,,,,,
100024661,2018-09-12 16:00,1.0,,,,550,401,951,,,,,,,
100024661,2018-09-12 17:00,1.0,,,,737,507,1244,,,,,,,
100024661,2018-09-12 18:00,1.0,,,,894,718,1612,,,,,,,
100024661,2018-09-12 19:00,1.0,,,,576,471,1047,,,,,,,
100024661,2018-09-12 20:00,1.0,,,,329,294,623,,,,,,,
100024661,2018-09-12 21:00,1.0,,,,217,218,435,,,,,,,
100024661,2018-09-12 22:00,1.0,,,,177,214,391,,,,,,,
100024661,2018-09-12 23:00,1.0,,,,110,144,254,,,,,,,
100024661,2018-09-13 00:00,1.0,,,,76,78,154,,,,,,,
100024661,2018-09-13 01:00,1.0,,,,36,36,72,,,,,,,
100024661,2018-09-13 02:00,1.0,,,,22,18,40,,,,,,,
100024661,2018-09-13 03:00,1.0,,,,13,4,17,,,,,,,
100024661,2018-09-13 04:00,1.0,,,,12,13,25,,,,,,,
100024661,2018-09-13 05:00,1.0,,,,19,27,46,,,,,,,
100024661,2018-09-13 06:00,1.0,,,,44,106,150,,,,,,,
100024661,2018-09-13 07:00,1.0,,,,175,319,494,,,,,,,
100024661,2018-09-13 08:00,1.0,,,,459,733,1192,,,,,,,
100024661,2018-09-13 09:00,1.0,,,,429,579,1008,,,,,,,
100024661,2018-09-13 10:00,1.0,,,,192,210,402,,,,,,,
100024661,2018-09-13 11:00,1.0,,,,147,149,296,,,,,,,
100024661,2018-09-13 12:00,1.0,,,,168,147,315,,,,,,,
100024661,2018-09-13 13:00,1.0,,,,203,191,394,,,,,,,
100024661,2018-09-13 14:00,1.0,,,,270,220,490,,,,,,,
100024661,2018-09-13 15:00,1.0,,,,365,283,648,,,,,,,
100024661,2018-09-13 16:00,1.0,,,,437,287,724,,,,,,,
100024661,2018-09-13 17:00,1.0,,,,554,363,917,,,,,,,
100024661,2018-09-13 18:00,1.0,,,,528,417,945,,,,,,,
100024661,2018-09-13 19:00,1.0,,,,382,362,744,,,,,,,
100024661,2018-09-13 20:00,1.0,,,,199,206,405,,,,,,,
100024661,2018-09-13 21:00,1.0,,,,119,137,256,,,,,,,
100024661,2018-09-13 22:00,1.0,,,,122,124,246,,,,,,,
100024661,2018-09-13 23:00,1.0,,,,91,100,191,,,,,,,
100024661,2018-09-14 00:00,1.0,,,,50,66,116,,,,,,,
100024661,2018-09-14 01:00,1.0,,,,48,19,67,,,,,,,
100024661,2018-09-14 02:00,1.0,,,,19,22,41,,,,,,,
100024661,2018-09-14 03:00,1.0,,,,19,6,25,,,,,,,
100024661,2018-09-14 04:00,1.0,,,,15,15,30,,,,,,,
100024661,2018-09-14 05:00,1.0,,,,26,32,58,,,,,,,
100024661,2018-09-14 06:00,1.0,,,,44,114,158,,,,,,,
100024661,2018-09-14 07:00,1.0,,,,168,316,484,,,,,,,
100024661,2018-09-14 08:00,1.0,,,,409,779,1188,,,,,,,
100024661,2018-09-14 09:00,1.0,,,,482,561,1043,,,,,,,
100024661,2018-09-14 10:00,1.0,,,,243,282,525,,,,,,,
100024661,2018-09-14 11:00,1.0,,,,199,195,394,,,,,,,
100024661,2018-09-14 12:00,1.0,,,,198,251,449,,,,,,,
100024661,2018-09-14 13:00,1.0,,,,284,245,529,,,,,,,
100024661,2018-09-14 14:00,1.0,,,,355,285,640,,,,,,,
100024661,2018-09-14 15:00,1.0,,,,440,356,796,,,,,,,
100024661,2018-09-14 16:00,1.0,,,,491,349,840,,,,,,,
100024661,2018-09-14 17:00,1.0,,,,522,421,943,,,,,,,
100024661,2018-09-14 18:00,1.0,,,,609,500,1109,,,,,,,
100024661,2018-09-14 19:00,1.0,,,,394,417,811,,,,,,,
100024661,2018-09-14 20:00,1.0,,,,255,267,522,,,,,,,
100024661,2018-09-14 21:00,1.0,,,,187,172,359,,,,,,,
100024661,2018-09-14 22:00,1.0,,,,168,209,377,,,,,,,
100024661,2018-09-14 23:00,1.0,,,,141,121,262,,,,,,,
100024661,2018-09-15 00:00,1.0,,,,100,99,199,,,,,,,
100024661,2018-09-15 01:00,1.0,,,,68,81,149,,,,,,,
100024661,2018-09-15 02:00,1.0,,,,44,46,90,,,,,,,
100024661,2018-09-15 03:00,1.0,,,,36,29,65,,,,,,,
100024661,2018-09-15 04:00,1.0,,,,29,19,48,,,,,,,
100024661,2018-09-15 05:00,1.0,,,,16,11,27,,,,,,,
100024661,2018-09-15 06:00,1.0,,,,34,15,49,,,,,,,
100024661,2018-09-15 07:00,1.0,,,,39,35,74,,,,,,,
100024661,2018-09-15 08:00,1.0,,,,63,65,128,,,,,,,
100024661,2018-09-15 09:00,1.0,,,,136,127,263,,,,,,,
100024661,2018-09-15 10:00,1.0,,,,167,147,314,,,,,,,
100024661,2018-09-15 11:00,1.0,,,,181,188,369,,,,,,,
100024661,2018-09-15 12:00,1.0,,,,214,195,409,,,,,,,
100024661,2018-09-15 13:00,1.0,,,,224,293,517,,,,,,,
100024661,2018-09-15 14:00,1.0,,,,252,273,525,,,,,,,
100024661,2018-09-15 15:00,1.0,,,,103,234,337,,,,,,,
100024661,2018-09-15 16:00,1.0,,,,127,156,283,,,,,,,
100024661,2018-09-15 17:00,1.0,,,,304,270,574,,,,,,,
100024661,2018-09-15 18:00,1.0,,,,306,314,620,,,,,,,
100024661,2018-09-15 19:00,1.0,,,,240,257,497,,,,,,,
100024661,2018-09-15 20:00,1.0,,,,175,200,375,,,,,,,
100024661,2018-09-15 21:00,1.0,,,,133,155,288,,,,,,,
100024661,2018-09-15 22:00,1.0,,,,98,123,221,,,,,,,
100024661,2018-09-15 23:00,1.0,,,,103,134,237,,,,,,,
100024661,2018-09-16 00:00,1.0,,,,83,104,187,,,,,,,
100024661,2018-09-16 01:00,1.0,,,,83,100,183,,,,,,,
100024661,2018-09-16 02:00,1.0,,,,54,41,95,,,,,,,
100024661,2018-09-16 03:00,1.0,,,,48,30,78,,,,,,,
100024661,2018-09-16 04:00,1.0,,,,34,27,61,,,,,,,
100024661,2018-09-16 05:00,1.0,,,,30,29,59,,,,,,,
100024661,2018-09-16 06:00,1.0,,,,26,15,41,,,,,,,
100024661,2018-09-16 07:00,1.0,,,,33,12,45,,,,,,,
100024661,2018-09-16 08:00,1.0,,,,45,40,85,,,,,,,
100024661,2018-09-16 09:00,1.0,,,,71,79,150,,,,,,,
100024661,2018-09-16 10:00,1.0,,,,78,138,216,,,,,,,
100024661,2018-09-16 11:00,1.0,,,,82,199,281,,,,,,,
100024661,2018-09-16 12:00,1.0,,,,146,124,270,,,,,,,
100024661,2018-09-16 13:00,1.0,,,,149,171,320,,,,,,,
100024661,2018-09-16 14:00,1.0,,,,164,206,370,,,,,,,
100024661,2018-09-16 15:00,1.0,,,,206,194,400,,,,,,,
100024661,2018-09-16 16:00,1.0,,,,191,183,374,,,,,,,
100024661,2018-09-16 17:00,1.0,,,,245,226,471,,,,,,,
100024661,2018-09-16 18:00,1.0,,,,230,242,472,,,,,,,
100024661,2018-09-16 19:00,1.0,,,,205,177,382,,,,,,,
100024661,2018-09-16 20:00,1.0,,,,122,142,264,,,,,,,
100024661,2018-09-16 21:00,1.0,,,,103,113,216,,,,,,,
100024661,2018-09-16 22:00,1.0,,,,78,103,181,,,,,,,
100024661,2018-09-16 23:00,1.0,,,,58,63,121,,,,,,,
100024661,2018-09-17 00:00,1.0,,,,33,28,61,,,,,,,
100024661,2018-09-17 01:00,1.0,,,,26,21,47,,,,,,,
100024661,2018-09-17 02:00,1.0,,,,9,12,21,,,,,,,
100024661,2018-09-17 03:00,1.0,,,,4,8,12,,,,,,,
100024661,2018-09-17 04:00,1.0,,,,7,10,17,,,,,,,
100024661,2018-09-17 05:00,1.0,,,,24,39,63,,,,,,,
100024661,2018-09-17 06:00,1.0,,,,47,110,157,,,,,,,
100024661,2018-09-17 07:00,1.0,,,,207,363,570,,,,,,,
100024661,2018-09-17 08:00,1.0,,,,569,978,1547,,,,,,,
100024661,2018-09-17 09:00,1.0,,,,577,771,1348,,,,,,,
100024661,2018-09-17 10:00,1.0,,,,263,342,605,,,,,,,
100024661,2018-09-17 11:00,1.0,,,,205,241,446,,,,,,,
100024661,2018-09-17 12:00,1.0,,,,250,223,473,,,,,,,
100024661,2018-09-17 13:00,1.0,,,,236,240,476,,,,,,,
100024661,2018-09-17 14:00,1.0,,,,303,286,589,,,,,,,
100024661,2018-09-17 15:00,1.0,,,,450,337,787,,,,,,,
100024661,2018-09-17 16:00,1.0,,,,564,372,936,,,,,,,
100024661,2018-09-17 17:00,1.0,,,,696,482,1178,,,,,,,
100024661,2018-09-17 18:00,1.0,,,,904,684,1588,,,,,,,
100024661,2018-09-17 19:00,1.0,,,,526,505,1031,,,,,,,
100024661,2018-09-17 20:00,1.0,,,,283,291,574,,,,,,,
100024661,2018-09-17 21:00,1.0,,,,227,228,455,,,,,,,
100024661,2018-09-17 22:00,1.0,,,,148,178,326,,,,,,,
100024661,2018-09-17 23:00,1.0,,,,76,104,180,,,,,,,
100024661,2018-09-18 00:00,1.0,,,,57,58,115,,,,,,,
100024661,2018-09-18 01:00,1.0,,,,19,37,56,,,,,,,
100024661,2018-09-18 02:00,1.0,,,,10,11,21,,,,,,,
100024661,2018-09-18 03:00,1.0,,,,11,8,19,,,,,,,
100024661,2018-09-18 04:00,1.0,,,,4,15,19,,,,,,,
100024661,2018-09-18 05:00,1.0,,,,20,36,56,,,,,,,
100024661,2018-09-18 06:00,1.0,,,,57,143,200,,,,,,,
100024661,2018-09-18 07:00,1.0,,,,244,407,651,,,,,,,
100024661,2018-09-18 08:00,1.0,,,,633,1027,1660,,,,,,,
100024661,2018-09-18 09:00,1.0,,,,560,819,1379,,,,,,,
100024661,2018-09-18 10:00,1.0,,,,292,371,663,,,,,,,
100024661,2018-09-18 11:00,1.0,,,,260,230,490,,,,,,,
100024661,2018-09-18 12:00,1.0,,,,234,276,510,,,,,,,
100024661,2018-09-18 13:00,1.0,,,,291,269,560,,,,,,,
100024661,2018-09-18 14:00,1.0,,,,356,280,636,,,,,,,
100024661,2018-09-18 15:00,1.0,,,,465,399,864,,,,,,,
100024661,2018-09-18 16:00,1.0,,,,576,386,962,,,,,,,
100024661,2018-09-18 17:00,1.0,,,,778,542,1320,,,,,,,
100024661,2018-09-18 18:00,1.0,,,,870,704,1574,,,,,,,
100024661,2018-09-18 19:00,1.0,,,,574,560,1134,,,,,,,
100024661,2018-09-18 20:00,1.0,,,,307,305,612,,,,,,,
100024661,2018-09-18 21:00,1.0,,,,233,215,448,,,,,,,
100024661,2018-09-18 22:00,1.0,,,,190,170,360,,,,,,,
100024661,2018-09-18 23:00,1.0,,,,144,133,277,,,,,,,
100024661,2018-09-19 00:00,1.0,,,,62,57,119,,,,,,,
100024661,2018-09-19 01:00,1.0,,,,33,39,72,,,,,,,
100024661,2018-09-19 02:00,1.0,,,,14,19,33,,,,,,,
100024661,2018-09-19 03:00,1.0,,,,13,11,24,,,,,,,
100024661,2018-09-19 04:00,1.0,,,,7,12,19,,,,,,,
100024661,2018-09-19 05:00,1.0,,,,19,39,58,,,,,,,
100024661,2018-09-19 06:00,1.0,,,,49,141,190,,,,,,,
100024661,2018-09-19 07:00,1.0,,,,223,416,639,,,,,,,
100024661,2018-09-19 08:00,1.0,,,,571,1052,1623,,,,,,,
100024661,2018-09-19 09:00,1.0,,,,623,755,1378,,,,,,,
100024661,2018-09-19 10:00,1.0,,,,294,376,670,,,,,,,
100024661,2018-09-19 11:00,1.0,,,,230,253,483,,,,,,,
100024661,2018-09-19 12:00,1.0,,,,236,242,478,,,,,,,
100024661,2018-09-19 13:00,1.0,,,,269,282,551,,,,,,,